Time,TemperatureF,DewpointF,PressureIn,WindDirection,WindDirectionDegrees,WindSpeedMPH,WindSpeedGustMPH,Humidity,HourlyPrecipIn,Conditions,Clouds,dailyrainin,SoftwareType,DateUTC
2013-07-14 00:01:00,71.8,69.3,30.02,ENE,65,0.0,0.0,92,0.00,OVC,,0.00,WeatherDisplay:10.37,2013-07-14 04:01:00,
2013-07-14 00:02:00,71.8,69.3,30.02,ENE,65,0.0,0.0,92,0.00,OVC,,0.00,WeatherDisplay:10.37,2013-07-14 04:02:00,
2013-07-14 00:03:00,71.8,69.3,30.02,ENE,65,0.0,0.0,92,0.00,OVC,,0.00,WeatherDisplay:10.37,2013-07-14 04:03:00,
2013-07-14 00:04:00,71.9,69.4,30.02,ENE,65,1.2,1.2,92,0.00,OVC,,0.00,WeatherDisplay:10.37,2013-07-14 04:04:00,
2013-07-14 00:09:00,71.9,69.4,30.02,ENE,65,0.0,0.0,92,0.00,OVC,,0.00,WeatherDisplay:10.37,2013-07-14 04:09:00,
2013-07-14 00:14:00,71.9,69.4,30.02,ENE,65,1.2,1.2,92,0.00,OVC,,0.00,WeatherDisplay:10.37,2013-07-14 04:14:00,
2013-07-14 00:19:00,71.9,69.4,30.02,ENE,65,0.0,0.0,92,0.00,OVC,,0.00,WeatherDisplay:10.37,2013-07-14 04:19:00,
2013-07-14 00:24:00,71.9,69.4,30.02,ENE,65,0.0,0.0,92,0.00,OVC,,0.00,WeatherDisplay:10.37,2013-07-14 04:24:00,
2013-07-14 00:29:00,72.0,69.5,30.01,ENE,65,1.2,1.2,92,0.00,OVC,,0.00,WeatherDisplay:10.37,2013-07-14 04:29:00,
2013-07-14 00:34:00,72.0,69.5,30.01,ENE,65,1.2,1.2,92,0.00,OVC,,0.00,WeatherDisplay:10.37,2013-07-14 04:34:00,
2013-07-14 00:39:00,72.0,69.5,30.02,ENE,65,0.0,0.0,92,0.00,OVC,,0.00,WeatherDisplay:10.37,2013-07-14 04:39:00,
2013-07-14 00:44:00,72.0,69.5,30.01,ENE,65,0.0,0.0,92,0.00,OVC,,0.00,WeatherDisplay:10.37,2013-07-14 04:44:00,
2013-07-14 00:49:00,72.1,69.6,30.01,ENE,65,0.0,0.0,92,0.00,OVC,,0.00,WeatherDisplay:10.37,2013-07-14 04:49:00,
2013-07-14 00:54:00,72.1,69.6,30.02,ENE,65,0.0,0.0,92,0.00,OVC,,0.00,WeatherDisplay:10.37,2013-07-14 04:54:00,
2013-07-14 00:59:00,72.1,69.6,30.02,ENE,65,0.0,0.0,92,0.00,OVC,,0.00,WeatherDisplay:10.37,2013-07-14 04:59:00,
2013-07-14 01:04:00,72.1,69.6,30.01,ENE,65,0.0,0.0,92,0.00,OVC,,0.00,WeatherDisplay:10.37,2013-07-14 05:04:00,
2013-07-14 01:09:00,72.0,69.5,30.01,ENE,65,0.0,0.0,92,0.00,OVC,,0.00,WeatherDisplay:10.37,2013-07-14 05:09:00,
2013-07-14 01:14:00,72.0,69.5,30.02,ENE,65,0.0,0.0,92,0.00,OVC,,0.00,WeatherDisplay:10.37,2013-07-14 05:14:00,
2013-07-14 01:19:00,72.0,69.5,30.02,ENE,65,0.0,0.0,92,0.00,OVC,,0.00,WeatherDisplay:10.37,2013-07-14 05:19:00,
2013-07-14 01:24:00,72.0,69.5,30.02,East,92,1.0,1.0,92,0.00,OVC,,0.00,WeatherDisplay:10.37,2013-07-14 05:24:00,
2013-07-14 01:29:00,72.0,69.5,30.02,East,92,0.0,0.0,92,0.00,OVC,,0.00,WeatherDisplay:10.37,2013-07-14 05:29:00,
2013-07-14 01:34:00,72.0,69.5,30.02,East,92,0.0,0.2,92,0.00,OVC,,0.00,WeatherDisplay:10.37,2013-07-14 05:34:00,
2013-07-14 01:39:00,72.0,69.5,30.02,East,92,0.0,0.0,92,0.00,OVC,,0.00,WeatherDisplay:10.37,2013-07-14 05:39:00,
2013-07-14 01:44:00,72.0,69.5,30.02,East,92,0.0,0.0,92,0.00,OVC,,0.00,WeatherDisplay:10.37,2013-07-14 05:44:00,
2013-07-14 01:49:00,72.0,69.5,30.02,East,92,1.2,0.0,92,0.00,OVC,,0.00,WeatherDisplay:10.37,2013-07-14 05:49:00,
2013-07-14 01:54:00,72.0,69.5,30.02,ENE,68,1.2,0.0,92,0.00,OVC,,0.00,WeatherDisplay:10.37,2013-07-14 05:54:00,
2013-07-14 01:59:00,72.0,69.5,30.02,ENE,68,0.0,0.0,92,0.00,OVC,,0.00,WeatherDisplay:10.37,2013-07-14 05:59:00,
2013-07-14 02:04:00,72.0,69.5,30.01,ENE,68,0.0,0.0,92,0.00,OVC,,0.00,WeatherDisplay:10.37,2013-07-14 06:04:00,
2013-07-14 02:09:00,72.0,69.5,30.01,ENE,68,0.0,0.0,92,0.00,OVC,,0.00,WeatherDisplay:10.37,2013-07-14 06:09:00,
2013-07-14 02:14:00,72.0,69.9,30.01,ENE,68,0.0,0.0,93,0.00,OVC,,0.01,WeatherDisplay:10.37,2013-07-14 06:14:00,
2013-07-14 02:19:00,72.0,69.9,30.01,ENE,67,1.2,1.2,93,0.01,RA,,0.01,WeatherDisplay:10.37,2013-07-14 06:19:00,
2013-07-14 02:24:00,71.9,70.1,30.01,ESE,115,1.2,1.2,94,0.01,RA,,0.01,WeatherDisplay:10.37,2013-07-14 06:24:00,
2013-07-14 02:29:00,71.7,69.9,30.01,SE,140,0.0,0.0,94,0.01,RA,,0.01,WeatherDisplay:10.37,2013-07-14 06:29:00,
2013-07-14 02:34:00,71.7,69.9,30.00,SE,137,0.0,0.0,94,0.01,BKN,,0.01,WeatherDisplay:10.37,2013-07-14 06:34:00,
2013-07-14 02:39:00,71.6,69.8,30.00,SE,137,0.0,0.0,94,0.01,BKN,,0.01,WeatherDisplay:10.37,2013-07-14 06:39:00,
2013-07-14 02:44:00,71.5,69.7,30.00,SE,137,1.0,0.0,94,0.01,BKN,,0.01,WeatherDisplay:10.37,2013-07-14 06:44:00,
2013-07-14 02:49:00,71.4,69.6,30.00,SE,137,0.0,0.0,94,0.01,BKN,,0.01,WeatherDisplay:10.37,2013-07-14 06:49:00,
2013-07-14 02:54:00,71.4,69.9,30.00,SE,137,0.0,0.0,95,0.01,OVC,,0.01,WeatherDisplay:10.37,2013-07-14 06:54:00,
2013-07-14 02:59:00,71.3,69.8,30.00,SE,131,1.2,1.2,95,0.01,OVC,,0.01,WeatherDisplay:10.37,2013-07-14 06:59:00,
2013-07-14 03:04:00,71.3,69.8,30.00,ENE,78,1.2,1.2,95,0.01,OVC,,0.01,WeatherDisplay:10.37,2013-07-14 07:04:00,
2013-07-14 03:09:00,71.2,69.7,30.00,ENE,69,1.2,1.2,95,0.01,OVC,,0.01,WeatherDisplay:10.37,2013-07-14 07:09:00,
2013-07-14 03:14:00,71.2,69.7,30.00,ENE,69,1.2,0.0,95,0.01,OVC,,0.01,WeatherDisplay:10.37,2013-07-14 07:14:00,
2013-07-14 03:19:00,71.2,69.7,30.00,ENE,69,0.0,0.1,95,0.00,OVC,,0.01,WeatherDisplay:10.37,2013-07-14 07:19:00,
2013-07-14 03:24:00,71.1,69.6,30.00,ENE,69,0.0,0.0,95,0.00,OVC,,0.01,WeatherDisplay:10.37,2013-07-14 07:24:00,
2013-07-14 03:29:00,71.1,69.6,30.00,ENE,69,0.0,0.0,95,0.00,OVC,,0.01,WeatherDisplay:10.37,2013-07-14 07:29:00,
2013-07-14 03:34:00,71.1,69.6,30.00,East,90,0.0,0.0,95,0.00,OVC,,0.01,WeatherDisplay:10.37,2013-07-14 07:34:00,
2013-07-14 03:39:00,71.1,69.9,30.00,East,91,0.0,0.0,96,0.00,OVC,,0.01,WeatherDisplay:10.37,2013-07-14 07:39:00,
2013-07-14 03:44:00,71.1,69.9,30.00,East,91,0.0,0.0,96,0.00,OVC,,0.01,WeatherDisplay:10.37,2013-07-14 07:44:00,
2013-07-14 03:49:00,71.0,69.5,30.00,East,88,0.0,0.0,95,0.00,OVC,,0.01,WeatherDisplay:10.37,2013-07-14 07:49:00,
2013-07-14 03:54:00,71.0,69.5,30.00,East,87,0.0,0.0,95,0.00,OVC,,0.01,WeatherDisplay:10.37,2013-07-14 07:54:00,
2013-07-14 03:59:00,71.0,69.5,30.00,East,84,1.2,1.2,95,0.00,OVC,,0.01,WeatherDisplay:10.37,2013-07-14 07:59:00,
2013-07-14 04:04:00,70.9,69.4,30.00,East,84,1.2,1.2,95,0.00,OVC,,0.01,WeatherDisplay:10.37,2013-07-14 08:04:00,
2013-07-14 04:09:00,70.9,69.4,30.00,East,84,0.0,0.0,95,0.00,OVC,,0.01,WeatherDisplay:10.37,2013-07-14 08:09:00,
2013-07-14 04:14:00,70.8,69.3,30.00,SE,134,0.0,0.0,95,0.00,OVC,,0.01,WeatherDisplay:10.37,2013-07-14 08:14:00,
2013-07-14 04:19:00,70.8,69.6,30.00,East,94,1.0,0.0,96,0.00,OVC,,0.01,WeatherDisplay:10.37,2013-07-14 08:19:00,
2013-07-14 04:24:00,70.8,69.6,30.00,East,94,0.0,0.0,96,0.00,BKN,,0.01,WeatherDisplay:10.37,2013-07-14 08:24:00,
2013-07-14 04:29:00,70.8,69.6,30.00,ESE,102,1.2,0.0,96,0.00,BKN,,0.01,WeatherDisplay:10.37,2013-07-14 08:29:00,
2013-07-14 04:34:00,70.8,69.6,30.00,East,98,1.2,0.0,96,0.00,BKN,,0.01,WeatherDisplay:10.37,2013-07-14 08:34:00,
2013-07-14 04:39:00,70.8,69.6,30.01,ENE,63,0.0,0.1,96,0.00,BKN,,0.01,WeatherDisplay:10.37,2013-07-14 08:39:00,
2013-07-14 04:44:00,70.8,69.6,30.01,ENE,68,1.0,1.0,96,0.00,OVC,,0.01,WeatherDisplay:10.37,2013-07-14 08:44:00,
2013-07-14 04:49:00,70.8,69.6,30.01,ESE,106,0.0,0.2,96,0.00,OVC,,0.01,WeatherDisplay:10.37,2013-07-14 08:49:00,
2013-07-14 04:54:00,70.8,69.6,30.01,East,94,0.0,0.0,96,0.00,OVC,,0.01,WeatherDisplay:10.37,2013-07-14 08:54:00,
2013-07-14 04:59:00,70.8,69.6,30.01,ESE,113,0.0,0.0,96,0.00,OVC,,0.01,WeatherDisplay:10.37,2013-07-14 08:59:00,
2013-07-14 05:04:00,70.8,69.6,30.01,ESE,113,0.0,0.0,96,0.00,OVC,,0.01,WeatherDisplay:10.37,2013-07-14 09:04:00,
2013-07-14 05:09:00,70.7,69.5,30.01,East,79,1.2,1.2,96,0.00,OVC,,0.01,WeatherDisplay:10.37,2013-07-14 09:09:00,
2013-07-14 05:14:00,70.7,69.5,30.01,ENE,78,1.0,1.0,96,0.00,OVC,,0.01,WeatherDisplay:10.37,2013-07-14 09:14:00,
2013-07-14 05:19:00,70.7,69.5,30.01,ENE,78,1.2,1.2,96,0.00,OVC,,0.01,WeatherDisplay:10.37,2013-07-14 09:19:00,
2013-07-14 05:24:00,70.7,69.5,30.01,ENE,78,0.0,0.0,96,0.00,OVC,,0.01,WeatherDisplay:10.37,2013-07-14 09:24:00,
2013-07-14 05:29:00,70.7,69.5,30.02,East,79,0.0,0.2,96,0.00,OVC,,0.01,WeatherDisplay:10.37,2013-07-14 09:29:00,
2013-07-14 05:34:00,70.6,69.4,30.02,ENE,78,0.0,0.0,96,0.00,OVC,,0.01,WeatherDisplay:10.37,2013-07-14 09:34:00,
2013-07-14 05:39:00,70.6,69.4,30.02,East,79,0.0,0.0,96,0.00,OVC,,0.01,WeatherDisplay:10.37,2013-07-14 09:39:00,
2013-07-14 05:44:00,70.6,69.4,30.02,East,79,0.0,0.0,96,0.00,OVC,,0.01,WeatherDisplay:10.37,2013-07-14 09:44:00,
2013-07-14 05:49:00,70.6,69.4,30.02,ENE,78,0.0,0.0,96,0.00,OVC,,0.01,WeatherDisplay:10.37,2013-07-14 09:49:00,
2013-07-14 05:54:00,70.6,69.4,30.02,ENE,78,0.0,0.0,96,0.00,OVC,,0.01,WeatherDisplay:10.37,2013-07-14 09:54:00,
2013-07-14 05:59:00,70.6,69.4,30.02,ENE,78,0.0,0.0,96,0.00,OVC,,0.01,WeatherDisplay:10.37,2013-07-14 09:59:00,
2013-07-14 06:04:00,70.6,69.4,30.03,ENE,78,0.0,0.0,96,0.00,OVC,,0.01,WeatherDisplay:10.37,2013-07-14 10:04:00,
2013-07-14 06:09:00,70.6,69.4,30.03,ENE,78,0.0,0.0,96,0.00,OVC,,0.01,WeatherDisplay:10.37,2013-07-14 10:09:00,
2013-07-14 06:14:00,70.6,69.4,30.03,East,79,0.0,0.0,96,0.00,OVC,,0.01,WeatherDisplay:10.37,2013-07-14 10:14:00,
2013-07-14 06:19:00,70.6,69.4,30.03,ENE,78,0.0,0.0,96,0.00,OVC,,0.01,WeatherDisplay:10.37,2013-07-14 10:19:00,
2013-07-14 06:24:00,70.6,69.4,30.03,East,84,0.0,0.0,96,0.00,OVC,,0.01,WeatherDisplay:10.37,2013-07-14 10:24:00,
2013-07-14 06:29:00,70.6,69.4,30.04,East,84,0.0,0.0,96,0.00,OVC,,0.01,WeatherDisplay:10.37,2013-07-14 10:29:00,
2013-07-14 06:34:00,70.6,69.4,30.04,East,84,0.0,0.0,96,0.00,OVC,,0.01,WeatherDisplay:10.37,2013-07-14 10:34:00,
2013-07-14 06:39:00,70.6,69.4,30.04,East,85,0.0,0.0,96,0.00,OVC,,0.01,WeatherDisplay:10.37,2013-07-14 10:39:00,
2013-07-14 06:44:00,70.6,69.4,30.05,East,84,0.0,0.0,96,0.00,OVC,,0.01,WeatherDisplay:10.37,2013-07-14 10:44:00,
2013-07-14 06:49:00,70.6,69.4,30.05,East,85,0.0,0.0,96,0.00,OVC,,0.01,WeatherDisplay:10.37,2013-07-14 10:49:00,
2013-07-14 06:54:00,70.6,69.4,30.05,East,85,0.0,0.0,96,0.00,OVC,,0.01,WeatherDisplay:10.37,2013-07-14 10:54:00,
2013-07-14 06:59:00,70.7,69.5,30.05,East,84,1.2,0.0,96,0.00,OVC,,0.01,WeatherDisplay:10.37,2013-07-14 10:59:00,
2013-07-14 07:04:00,70.7,69.5,30.05,East,85,0.0,0.0,96,0.00,OVC,,0.01,WeatherDisplay:10.37,2013-07-14 11:04:00,
2013-07-14 07:09:00,70.7,69.5,30.06,East,95,1.2,1.2,96,0.00,OVC,,0.01,WeatherDisplay:10.37,2013-07-14 11:09:00,
2013-07-14 07:14:00,70.7,69.5,30.06,East,95,0.0,0.1,96,0.00,OVC,,0.01,WeatherDisplay:10.37,2013-07-14 11:14:00,
2013-07-14 07:19:00,70.8,69.6,30.06,East,95,0.0,0.0,96,0.00,OVC,,0.01,WeatherDisplay:10.37,2013-07-14 11:19:00,
2013-07-14 07:24:00,70.8,69.6,30.06,East,101,0.0,0.1,96,0.00,OVC,,0.01,WeatherDisplay:10.37,2013-07-14 11:24:00,
2013-07-14 07:29:00,70.9,69.7,30.06,East,100,1.0,0.0,96,0.00,OVC,,0.01,WeatherDisplay:10.37,2013-07-14 11:29:00,
2013-07-14 07:34:00,70.9,69.7,30.06,East,94,1.2,1.2,96,0.00,OVC,,0.01,WeatherDisplay:10.37,2013-07-14 11:34:00,
2013-07-14 07:39:00,70.9,69.7,30.06,ENE,71,1.2,1.2,96,0.00,OVC,,0.01,WeatherDisplay:10.37,2013-07-14 11:39:00,
2013-07-14 07:44:00,70.9,69.7,30.06,ENE,63,1.2,1.2,96,0.00,OVC,,0.01,WeatherDisplay:10.37,2013-07-14 11:44:00,
2013-07-14 07:49:00,71.0,69.8,30.06,ENE,75,1.2,1.2,96,0.00,OVC,,0.01,WeatherDisplay:10.37,2013-07-14 11:49:00,
2013-07-14 07:54:00,71.0,69.8,30.06,ENE,65,1.2,1.2,96,0.00,OVC,,0.01,WeatherDisplay:10.37,2013-07-14 11:54:00,
2013-07-14 07:59:00,71.1,69.9,30.07,ENE,72,1.2,1.2,96,0.00,OVC,,0.01,WeatherDisplay:10.37,2013-07-14 11:59:00,
2013-07-14 08:04:00,71.1,69.9,30.06,ENE,72,2.3,2.3,96,0.00,OVC,,0.01,WeatherDisplay:10.37,2013-07-14 12:04:00,
2013-07-14 08:09:00,71.2,70.0,30.06,ENE,71,1.2,1.2,96,0.00,OVC,,0.01,WeatherDisplay:10.37,2013-07-14 12:09:00,
2013-07-14 08:14:00,71.2,70.0,30.07,ENE,71,1.2,1.2,96,0.00,OVC,,0.01,WeatherDisplay:10.37,2013-07-14 12:14:00,
2013-07-14 08:19:00,71.3,70.1,30.06,ENE,69,2.3,2.3,96,0.00,OVC,,0.01,WeatherDisplay:10.37,2013-07-14 12:19:00,
2013-07-14 08:24:00,71.4,69.9,30.06,ENE,69,0.0,0.0,95,0.00,OVC,,0.01,WeatherDisplay:10.37,2013-07-14 12:24:00,
2013-07-14 08:29:00,71.6,70.4,30.06,ENE,69,1.2,1.2,96,0.00,OVC,,0.01,WeatherDisplay:10.37,2013-07-14 12:29:00,
2013-07-14 08:34:00,71.6,70.1,30.06,East,85,1.2,1.2,95,0.00,OVC,,0.01,WeatherDisplay:10.37,2013-07-14 12:34:00,
2013-07-14 08:39:00,71.6,70.1,30.07,ENE,58,0.0,0.0,95,0.00,OVC,,0.01,WeatherDisplay:10.37,2013-07-14 12:39:00,
2013-07-14 08:44:00,71.6,70.1,30.07,East,81,1.2,0.0,95,0.00,OVC,,0.01,WeatherDisplay:10.37,2013-07-14 12:44:00,
2013-07-14 08:49:00,71.6,70.1,30.07,East,81,1.2,1.2,95,0.00,OVC,,0.01,WeatherDisplay:10.37,2013-07-14 12:49:00,
2013-07-14 08:54:00,71.6,70.1,30.07,East,81,1.2,1.2,95,0.00,OVC,,0.01,WeatherDisplay:10.37,2013-07-14 12:54:00,
2013-07-14 08:59:00,71.7,70.2,30.07,East,80,1.2,0.0,95,0.00,OVC,,0.01,WeatherDisplay:10.37,2013-07-14 12:59:00,
2013-07-14 09:04:00,71.7,70.2,30.07,ENE,58,1.2,1.2,95,0.00,OVC,,0.01,WeatherDisplay:10.37,2013-07-14 13:04:00,
2013-07-14 09:09:00,71.8,70.3,30.08,SE,132,1.2,0.0,95,0.00,OVC,,0.01,WeatherDisplay:10.37,2013-07-14 13:09:00,
2013-07-14 09:14:00,71.9,70.4,30.07,ENE,63,1.2,1.2,95,0.00,OVC,,0.01,WeatherDisplay:10.37,2013-07-14 13:14:00,
2013-07-14 09:19:00,72.1,70.3,30.07,ENE,76,3.5,3.5,94,0.00,OVC,,0.01,WeatherDisplay:10.37,2013-07-14 13:19:00,
2013-07-14 09:24:00,72.2,70.4,30.08,East,84,2.3,2.3,94,0.00,OVC,,0.01,WeatherDisplay:10.37,2013-07-14 13:24:00,
2013-07-14 09:29:00,72.4,70.6,30.08,ENE,59,2.3,2.3,94,0.00,OVC,,0.01,WeatherDisplay:10.37,2013-07-14 13:29:00,
2013-07-14 09:34:00,72.5,70.7,30.08,ESE,106,3.5,3.5,94,0.00,OVC,,0.01,WeatherDisplay:10.37,2013-07-14 13:34:00,
2013-07-14 09:39:00,72.7,70.9,30.08,SE,146,1.2,1.2,94,0.00,OVC,,0.01,WeatherDisplay:10.37,2013-07-14 13:39:00,
2013-07-14 09:44:00,72.9,70.8,30.08,ENE,65,3.5,3.5,93,0.00,OVC,,0.01,WeatherDisplay:10.37,2013-07-14 13:44:00,
2013-07-14 09:49:00,73.0,70.5,30.08,SE,139,3.5,3.5,92,0.00,OVC,,0.01,WeatherDisplay:10.37,2013-07-14 13:49:00,
2013-07-14 09:54:00,73.1,70.6,30.08,SE,141,3.5,3.5,92,0.00,OVC,,0.01,WeatherDisplay:10.37,2013-07-14 13:54:00,
2013-07-14 09:59:00,73.1,70.6,30.08,ESE,123,1.2,1.2,92,0.00,OVC,,0.01,WeatherDisplay:10.37,2013-07-14 13:59:00,
2013-07-14 10:04:00,73.3,70.8,30.08,ENE,71,3.5,3.5,92,0.00,OVC,,0.01,WeatherDisplay:10.37,2013-07-14 14:04:00,
2013-07-14 10:09:00,73.7,71.2,30.08,ESE,108,3.5,3.5,92,0.00,OVC,,0.01,WeatherDisplay:10.37,2013-07-14 14:09:00,
2013-07-14 10:14:00,73.8,71.0,30.08,ENE,60,2.3,2.3,91,0.00,OVC,,0.01,WeatherDisplay:10.37,2013-07-14 14:14:00,
2013-07-14 10:19:00,73.9,71.1,30.08,ENE,65,3.5,3.5,91,0.00,OVC,,0.01,WeatherDisplay:10.37,2013-07-14 14:19:00,
2013-07-14 10:24:00,74.2,71.1,30.08,East,91,3.5,3.5,90,0.00,OVC,,0.01,WeatherDisplay:10.37,2013-07-14 14:24:00,
2013-07-14 10:29:00,74.7,71.6,30.08,ENE,76,2.3,2.3,90,0.00,OVC,,0.01,WeatherDisplay:10.37,2013-07-14 14:29:00,
2013-07-14 10:34:00,74.9,71.4,30.08,ENE,63,2.3,2.3,89,0.00,OVC,,0.01,WeatherDisplay:10.37,2013-07-14 14:34:00,
2013-07-14 10:39:00,75.0,70.9,30.08,ENE,68,3.5,3.5,87,0.00,OVC,,0.01,WeatherDisplay:10.37,2013-07-14 14:39:00,
2013-07-14 10:44:00,75.1,71.0,30.08,ENE,71,6.9,6.9,87,0.00,OVC,,0.01,WeatherDisplay:10.37,2013-07-14 14:44:00,
2013-07-14 10:49:00,75.3,71.2,30.08,East,99,2.3,2.3,87,0.00,OVC,,0.01,WeatherDisplay:10.37,2013-07-14 14:49:00,
2013-07-14 10:54:00,75.5,71.4,30.08,NE,51,2.3,2.3,87,0.00,OVC,,0.01,WeatherDisplay:10.37,2013-07-14 14:54:00,
2013-07-14 10:59:00,75.7,71.2,30.08,East,86,3.5,3.5,86,0.00,OVC,,0.01,WeatherDisplay:10.37,2013-07-14 14:59:00,
2013-07-14 11:04:00,75.8,71.3,30.08,ENE,74,2.0,2.0,86,0.00,OVC,,0.01,WeatherDisplay:10.37,2013-07-14 15:04:00,
2013-07-14 11:09:00,75.7,71.6,30.08,ESE,120,1.2,1.2,87,0.00,OVC,,0.01,WeatherDisplay:10.37,2013-07-14 15:09:00,
2013-07-14 11:14:00,75.6,71.5,30.08,NNE,30,3.5,3.5,87,0.00,OVC,,0.01,WeatherDisplay:10.37,2013-07-14 15:14:00,
2013-07-14 11:19:00,75.5,71.4,30.08,ENE,73,2.3,2.3,87,0.00,OVC,,0.01,WeatherDisplay:10.37,2013-07-14 15:19:00,
2013-07-14 11:24:00,75.6,71.8,30.08,East,88,1.2,1.2,88,0.00,OVC,,0.01,WeatherDisplay:10.37,2013-07-14 15:24:00,
2013-07-14 11:29:00,75.8,71.7,30.08,ENE,66,2.3,2.3,87,0.00,OVC,,0.01,WeatherDisplay:10.37,2013-07-14 15:29:00,
2013-07-14 11:34:00,76.0,71.5,30.08,NNE,15,3.5,3.5,86,0.00,OVC,,0.01,WeatherDisplay:10.37,2013-07-14 15:34:00,
2013-07-14 11:39:00,76.3,71.8,30.09,ENE,69,3.5,3.5,86,0.00,OVC,,0.01,WeatherDisplay:10.37,2013-07-14 15:39:00,
2013-07-14 11:44:00,76.6,71.7,30.09,NNE,14,3.5,3.5,85,0.00,OVC,,0.01,WeatherDisplay:10.37,2013-07-14 15:44:00,
2013-07-14 11:49:00,76.9,72.0,30.09,ENE,74,2.3,2.3,85,0.00,OVC,,0.01,WeatherDisplay:10.37,2013-07-14 15:49:00,
2013-07-14 11:54:00,77.0,71.8,30.09,SE,137,2.3,0.0,84,0.00,OVC,,0.01,WeatherDisplay:10.37,2013-07-14 15:54:00,
2013-07-14 11:59:00,77.0,72.1,30.09,ENE,61,3.5,3.5,85,0.00,OVC,,0.01,WeatherDisplay:10.37,2013-07-14 15:59:00,
2013-07-14 12:04:00,77.1,71.9,30.09,ENE,57,3.5,3.5,84,0.00,OVC,,0.01,WeatherDisplay:10.37,2013-07-14 16:04:00,
2013-07-14 12:09:00,77.1,71.9,30.09,ENE,78,3.5,3.5,84,0.00,OVC,,0.01,WeatherDisplay:10.37,2013-07-14 16:09:00,
2013-07-14 12:14:00,77.1,71.5,30.09,ENE,61,3.5,3.5,83,0.00,OVC,,0.01,WeatherDisplay:10.37,2013-07-14 16:14:00,
2013-07-14 12:19:00,77.2,72.0,30.09,East,81,1.2,2.1,84,0.00,OVC,,0.01,WeatherDisplay:10.37,2013-07-14 16:19:00,
2013-07-14 12:24:00,77.2,71.3,30.09,ENE,60,3.5,3.5,82,0.00,OVC,,0.01,WeatherDisplay:10.37,2013-07-14 16:24:00,
2013-07-14 12:29:00,77.2,71.6,30.09,ENE,71,2.3,2.3,83,0.00,OVC,,0.01,WeatherDisplay:10.37,2013-07-14 16:29:00,
2013-07-14 12:34:00,77.2,71.6,30.10,SSE,149,1.2,1.2,83,0.00,OVC,,0.01,WeatherDisplay:10.37,2013-07-14 16:34:00,
2013-07-14 12:39:00,77.4,72.2,30.10,ESE,108,2.0,2.0,84,0.00,OVC,,0.01,WeatherDisplay:10.37,2013-07-14 16:39:00,
2013-07-14 12:44:00,77.4,72.2,30.10,NE,53,1.2,0.0,84,0.00,OVC,,0.01,WeatherDisplay:10.37,2013-07-14 16:44:00,
2013-07-14 12:49:00,77.3,72.4,30.10,ENE,68,2.3,2.3,85,0.00,OVC,,0.01,WeatherDisplay:10.37,2013-07-14 16:49:00,
2013-07-14 12:54:00,77.3,72.8,30.10,ENE,62,3.5,3.5,86,0.00,OVC,,0.01,WeatherDisplay:10.37,2013-07-14 16:54:00,
2013-07-14 12:59:00,77.7,72.8,30.10,ENE,76,2.3,2.3,85,0.00,OVC,,0.01,WeatherDisplay:10.37,2013-07-14 16:59:00,
2013-07-14 13:04:00,78.2,72.3,30.10,ENE,72,4.6,4.6,82,0.00,OVC,,0.01,WeatherDisplay:10.37,2013-07-14 17:04:00,
2013-07-14 13:09:00,78.5,72.5,30.09,NE,37,3.5,3.5,82,0.00,OVC,,0.01,WeatherDisplay:10.37,2013-07-14 17:09:00,
2013-07-14 13:14:00,78.4,72.1,30.09,ESE,120,2.3,2.3,81,0.00,SCT,,0.01,WeatherDisplay:10.37,2013-07-14 17:14:00,
2013-07-14 13:19:00,78.5,72.5,30.09,East,88,3.5,3.5,82,0.00,SCT,,0.01,WeatherDisplay:10.37,2013-07-14 17:19:00,
2013-07-14 13:24:00,78.9,72.9,30.09,NNE,15,5.8,5.8,82,0.00,SCT,,0.01,WeatherDisplay:10.37,2013-07-14 17:24:00,
2013-07-14 13:29:00,79.4,72.7,30.09,NE,56,2.3,2.3,80,0.00,SCT,,0.01,WeatherDisplay:10.37,2013-07-14 17:29:00,
2013-07-14 13:34:00,79.4,73.1,30.08,ENE,67,2.3,2.4,81,0.00,SCT,,0.01,WeatherDisplay:10.37,2013-07-14 17:34:00,
2013-07-14 13:39:00,79.4,72.3,30.09,ENE,67,3.5,3.5,79,0.00,SCT,,0.01,WeatherDisplay:10.37,2013-07-14 17:39:00,
2013-07-14 13:44:00,79.5,72.4,30.09,East,96,3.5,3.5,79,0.00,SCT,,0.01,WeatherDisplay:10.37,2013-07-14 17:44:00,
2013-07-14 13:49:00,79.7,73.0,30.08,East,100,2.3,2.3,80,0.00,SCT,,0.01,WeatherDisplay:10.37,2013-07-14 17:49:00,
2013-07-14 13:54:00,79.9,73.2,30.08,ENE,57,2.3,2.3,80,0.00,SCT,,0.01,WeatherDisplay:10.37,2013-07-14 17:54:00,
2013-07-14 13:59:00,80.0,72.5,30.08,ENE,74,4.6,4.6,78,0.00,SCT,,0.01,WeatherDisplay:10.37,2013-07-14 17:59:00,
2013-07-14 14:04:00,79.5,72.4,30.08,East,80,2.3,2.3,79,0.00,SCT,,0.01,WeatherDisplay:10.37,2013-07-14 18:04:00,
2013-07-14 14:09:00,78.7,72.4,30.09,ENE,64,3.5,3.5,81,0.00,SCT,,0.01,WeatherDisplay:10.37,2013-07-14 18:09:00,
2013-07-14 14:14:00,78.5,72.5,30.09,ENE,71,2.3,2.3,82,0.00,OVC,,0.01,WeatherDisplay:10.37,2013-07-14 18:14:00,
2013-07-14 14:19:00,78.5,72.5,30.08,ENE,63,1.2,1.2,82,0.00,OVC,,0.01,WeatherDisplay:10.37,2013-07-14 18:19:00,
2013-07-14 14:24:00,78.5,72.9,30.08,East,85,2.3,2.3,83,0.00,OVC,,0.01,WeatherDisplay:10.37,2013-07-14 18:24:00,
2013-07-14 14:29:00,78.6,73.0,30.09,ENE,61,2.3,2.3,83,0.00,OVC,,0.01,WeatherDisplay:10.37,2013-07-14 18:29:00,
2013-07-14 14:34:00,78.7,73.1,30.08,ENE,63,3.5,3.5,83,0.00,OVC,,0.01,WeatherDisplay:10.37,2013-07-14 18:34:00,
2013-07-14 14:39:00,78.8,72.8,30.08,ENE,62,2.3,2.3,82,0.00,OVC,,0.01,WeatherDisplay:10.37,2013-07-14 18:39:00,
2013-07-14 14:44:00,78.9,73.3,30.08,ENE,72,2.3,2.3,83,0.00,OVC,,0.01,WeatherDisplay:10.37,2013-07-14 18:44:00,
2013-07-14 14:49:00,78.9,72.9,30.08,North,11,2.3,2.3,82,0.00,OVC,,0.01,WeatherDisplay:10.37,2013-07-14 18:49:00,
2013-07-14 14:54:00,78.7,72.7,30.08,ENE,67,2.3,2.3,82,0.00,OVC,,0.01,WeatherDisplay:10.37,2013-07-14 18:54:00,
2013-07-14 14:59:00,78.5,73.3,30.08,ENE,65,3.5,3.5,84,0.00,OVC,,0.01,WeatherDisplay:10.37,2013-07-14 18:59:00,
2013-07-14 15:04:00,78.4,73.2,30.08,ESE,117,3.5,3.5,84,0.00,OVC,,0.01,WeatherDisplay:10.37,2013-07-14 19:04:00,
2013-07-14 15:14:00,78.7,73.1,30.08,ENE,69,3.5,3.5,83,0.00,OVC,,0.01,WeatherDisplay:10.37,2013-07-14 19:14:00,
2013-07-14 15:19:00,79.2,73.2,30.08,SE,143,2.3,2.3,82,0.00,OVC,,0.01,WeatherDisplay:10.37,2013-07-14 19:19:00,
2013-07-14 15:24:00,79.6,73.3,30.08,SE,133,3.0,3.0,81,0.00,BKN,,0.01,WeatherDisplay:10.37,2013-07-14 19:24:00,
2013-07-14 15:30:00,79.9,73.5,30.07,ENE,66,1.0,1.0,81,0.00,RA,,0.01,WeatherDisplay:10.37,2013-07-14 19:30:00,
2013-07-14 15:35:00,80.0,72.5,30.07,ENE,78,3.5,3.5,78,0.00,RA,,0.01,WeatherDisplay:10.37,2013-07-14 19:35:00,
2013-07-14 15:40:00,79.8,71.9,30.07,SE,128,3.5,3.5,77,0.00,RA,,0.01,WeatherDisplay:10.37,2013-07-14 19:40:00,
2013-07-14 15:45:00,79.6,72.1,30.06,ENE,59,2.3,2.3,78,0.00,BKN,,0.01,WeatherDisplay:10.37,2013-07-14 19:45:00,
2013-07-14 15:50:00,79.6,72.5,30.06,East,81,2.3,2.3,79,0.00,BKN,,0.01,WeatherDisplay:10.37,2013-07-14 19:50:00,
2013-07-14 15:55:00,79.6,72.5,30.06,NE,53,3.0,3.0,79,0.00,BKN,,0.01,WeatherDisplay:10.37,2013-07-14 19:55:00,
2013-07-14 15:59:00,79.7,72.6,30.06,East,88,2.0,2.0,79,0.00,BKN,,0.01,WeatherDisplay:10.37,2013-07-14 19:59:00,
2013-07-14 16:04:00,79.8,72.3,30.06,ENE,72,2.3,2.3,78,0.00,BKN,,0.01,WeatherDisplay:10.37,2013-07-14 20:04:00,
2013-07-14 16:09:00,79.6,72.9,30.06,ENE,67,2.3,2.3,80,0.00,BKN,,0.01,WeatherDisplay:10.37,2013-07-14 20:09:00,
2013-07-14 16:14:00,79.4,72.7,30.06,ENE,66,3.5,3.5,80,0.00,BKN,,0.01,WeatherDisplay:10.37,2013-07-14 20:14:00,
2013-07-14 16:19:00,79.5,73.5,30.05,East,82,0.0,0.0,82,0.00,BKN,,0.01,WeatherDisplay:10.37,2013-07-14 20:19:00,
2013-07-14 16:24:00,79.6,73.3,30.06,NE,55,2.3,2.3,81,0.00,BKN,,0.01,WeatherDisplay:10.37,2013-07-14 20:24:00,
2013-07-14 16:29:00,79.8,73.1,30.05,ENE,59,1.2,1.2,80,0.00,BKN,,0.01,WeatherDisplay:10.37,2013-07-14 20:29:00,
2013-07-14 16:34:00,80.1,73.7,30.05,NE,56,4.6,4.6,81,0.00,BKN,,0.01,WeatherDisplay:10.37,2013-07-14 20:34:00,
2013-07-14 16:39:00,80.2,73.1,30.05,ENE,63,1.2,1.2,79,0.00,BKN,,0.01,WeatherDisplay:10.37,2013-07-14 20:39:00,
2013-07-14 16:44:00,80.3,73.2,30.05,ENE,76,3.5,3.5,79,0.00,BKN,,0.01,WeatherDisplay:10.37,2013-07-14 20:44:00,
2013-07-14 16:49:00,80.4,73.7,30.06,ENE,74,4.6,4.6,80,0.00,BKN,,0.01,WeatherDisplay:10.37,2013-07-14 20:49:00,
2013-07-14 16:54:00,79.9,72.8,30.07,East,88,6.9,6.9,79,0.00,BKN,,0.01,WeatherDisplay:10.37,2013-07-14 20:54:00,
2013-07-14 16:59:00,78.2,72.6,30.06,ENE,63,2.3,2.3,83,0.07,RA,,0.08,WeatherDisplay:10.37,2013-07-14 20:59:00,
2013-07-14 17:04:00,77.0,72.1,30.06,ENE,73,2.3,2.3,85,0.09,RA,,0.10,WeatherDisplay:10.37,2013-07-14 21:04:00,
2013-07-14 17:09:00,76.0,72.2,30.06,ENE,72,1.2,1.2,88,0.09,RA,,0.10,WeatherDisplay:10.37,2013-07-14 21:09:00,
2013-07-14 17:14:00,75.5,72.4,30.06,ENE,72,0.0,0.0,90,0.09,RA,,0.10,WeatherDisplay:10.37,2013-07-14 21:14:00,
2013-07-14 17:19:00,75.4,72.9,30.06,ENE,67,1.2,1.2,92,0.09,BKN,,0.10,WeatherDisplay:10.37,2013-07-14 21:19:00,
2013-07-14 17:24:00,75.2,73.0,30.06,ENE,67,1.2,1.2,93,0.09,BKN,,0.10,WeatherDisplay:10.37,2013-07-14 21:24:00,
2013-07-14 17:29:00,75.1,72.9,30.06,ENE,63,3.5,3.5,93,0.09,BKN,,0.10,WeatherDisplay:10.37,2013-07-14 21:29:00,
2013-07-14 17:34:00,75.1,73.3,30.06,ENE,73,1.2,1.2,94,0.09,BKN,,0.10,WeatherDisplay:10.37,2013-07-14 21:34:00,
2013-07-14 17:39:00,75.2,73.4,30.06,East,83,3.5,3.5,94,0.09,BKN,,0.10,WeatherDisplay:10.37,2013-07-14 21:39:00,
2013-07-14 17:44:00,75.2,73.4,30.05,East,87,2.3,2.3,94,0.09,BKN,,0.10,WeatherDisplay:10.37,2013-07-14 21:44:00,
2013-07-14 17:49:00,75.2,73.4,30.05,East,81,2.3,2.3,94,0.10,RA,,0.11,WeatherDisplay:10.37,2013-07-14 21:49:00,
2013-07-14 17:54:00,75.2,73.4,30.05,East,83,2.3,2.3,94,0.10,RA,,0.11,WeatherDisplay:10.37,2013-07-14 21:54:00,
2013-07-14 17:59:00,75.2,73.7,30.05,East,101,1.2,1.2,95,0.03,RA,,0.11,WeatherDisplay:10.37,2013-07-14 21:59:00,
2013-07-14 18:04:00,75.1,73.3,30.06,SE,146,4.6,4.6,94,0.02,BKN,,0.11,WeatherDisplay:10.37,2013-07-14 22:04:00,
2013-07-14 18:09:00,74.9,73.1,30.06,East,81,1.2,1.2,94,0.01,BKN,,0.11,WeatherDisplay:10.37,2013-07-14 22:09:00,
2013-07-14 18:14:00,74.8,73.0,30.06,ESE,117,1.2,1.2,94,0.01,BKN,,0.11,WeatherDisplay:10.37,2013-07-14 22:14:00,
2013-07-14 18:19:00,74.8,73.0,30.05,ENE,60,1.2,1.2,94,0.01,BKN,,0.11,WeatherDisplay:10.37,2013-07-14 22:19:00,
2013-07-14 18:24:00,74.8,73.0,30.06,ENE,60,1.2,1.2,94,0.01,BKN,,0.11,WeatherDisplay:10.37,2013-07-14 22:24:00,
2013-07-14 18:29:00,74.9,73.4,30.05,ENE,63,1.2,1.2,95,0.01,BKN,,0.11,WeatherDisplay:10.37,2013-07-14 22:29:00,
2013-07-14 18:34:00,74.9,73.1,30.06,East,88,1.2,1.2,94,0.01,BKN,,0.11,WeatherDisplay:10.37,2013-07-14 22:34:00,
2013-07-14 18:39:00,74.9,73.1,30.05,East,88,0.0,0.0,94,0.01,BKN,,0.11,WeatherDisplay:10.37,2013-07-14 22:39:00,
2013-07-14 18:44:00,74.9,73.1,30.05,ENE,57,2.3,2.3,94,0.01,BKN,,0.11,WeatherDisplay:10.37,2013-07-14 22:44:00,
2013-07-14 18:49:00,75.0,73.2,30.05,ENE,78,2.3,2.3,94,0.00,BKN,,0.11,WeatherDisplay:10.37,2013-07-14 22:49:00,
2013-07-14 18:54:00,75.1,73.6,30.06,ENE,78,1.2,1.2,95,0.00,BKN,,0.11,WeatherDisplay:10.37,2013-07-14 22:54:00,
2013-07-14 18:59:00,75.1,73.6,30.06,SE,146,3.0,3.0,95,0.00,BKN,,0.11,WeatherDisplay:10.37,2013-07-14 22:59:00,
2013-07-14 19:04:00,75.2,73.7,30.06,ENE,73,2.3,2.3,95,0.00,BKN,,0.11,WeatherDisplay:10.37,2013-07-14 23:04:00,
2013-07-14 19:09:00,75.2,73.4,30.06,East,82,1.2,1.2,94,0.00,BKN,,0.11,WeatherDisplay:10.37,2013-07-14 23:09:00,
2013-07-14 19:14:00,75.2,73.4,30.06,NE,34,2.3,2.3,94,0.00,BKN,,0.11,WeatherDisplay:10.37,2013-07-14 23:14:00,
2013-07-14 19:19:00,75.2,73.4,30.07,ENE,67,1.2,1.2,94,0.00,BKN,,0.11,WeatherDisplay:10.37,2013-07-14 23:19:00,
2013-07-14 19:24:00,75.2,73.0,30.07,ENE,67,2.3,2.3,93,0.00,BKN,,0.11,WeatherDisplay:10.37,2013-07-14 23:24:00,
2013-07-14 19:29:00,75.3,73.1,30.07,ENE,65,1.2,1.2,93,0.00,BKN,,0.11,WeatherDisplay:10.37,2013-07-14 23:29:00,
2013-07-14 19:34:00,75.3,73.1,30.07,ENE,67,2.3,2.3,93,0.00,BKN,,0.11,WeatherDisplay:10.37,2013-07-14 23:34:00,
2013-07-14 19:39:00,75.3,73.1,30.07,ENE,71,2.3,2.3,93,0.00,BKN,,0.11,WeatherDisplay:10.37,2013-07-14 23:39:00,
2013-07-14 19:44:00,75.3,73.1,30.07,NE,50,2.3,2.3,93,0.00,BKN,,0.11,WeatherDisplay:10.37,2013-07-14 23:44:00,
2013-07-14 19:49:00,75.3,73.1,30.07,ESE,107,3.5,3.5,93,0.00,BKN,,0.11,WeatherDisplay:10.37,2013-07-14 23:49:00,
2013-07-14 19:54:00,75.1,72.9,30.08,ENE,76,3.5,3.5,93,0.00,BKN,,0.11,WeatherDisplay:10.37,2013-07-14 23:54:00,
2013-07-14 19:59:00,74.6,72.1,30.08,East,80,1.2,1.2,92,0.00,BKN,,0.11,WeatherDisplay:10.37,2013-07-14 23:59:00,
2013-07-14 20:04:00,74.3,72.1,30.08,ENE,75,1.2,1.2,93,0.00,BKN,,0.11,WeatherDisplay:10.37,2013-07-15 00:04:00,
2013-07-14 20:09:00,74.0,72.2,30.08,ENE,69,2.0,2.0,94,0.00,BKN,,0.11,WeatherDisplay:10.37,2013-07-15 00:09:00,
2013-07-14 20:14:00,73.8,72.0,30.08,ENE,72,1.2,1.2,94,0.00,BKN,,0.11,WeatherDisplay:10.37,2013-07-15 00:14:00,
2013-07-14 20:19:00,73.6,71.8,30.08,ENE,63,1.2,1.2,94,0.00,BKN,,0.11,WeatherDisplay:10.37,2013-07-15 00:19:00,
2013-07-14 20:24:00,73.5,72.0,30.09,ENE,70,1.2,1.2,95,0.00,BKN,,0.11,WeatherDisplay:10.37,2013-07-15 00:24:00,
2013-07-14 20:29:00,73.4,71.9,30.09,NE,46,2.3,2.3,95,0.00,BKN,,0.11,WeatherDisplay:10.37,2013-07-15 00:29:00,
2013-07-14 20:34:00,73.3,71.8,30.09,ENE,71,2.3,2.3,95,0.01,RA,,0.12,WeatherDisplay:10.37,2013-07-15 00:34:00,
2013-07-14 20:39:00,73.3,71.8,30.09,ENE,74,1.2,1.2,95,0.01,RA,,0.12,WeatherDisplay:10.37,2013-07-15 00:39:00,
2013-07-14 20:44:00,73.2,71.7,30.09,ENE,65,1.2,0.0,95,0.01,RA,,0.12,WeatherDisplay:10.37,2013-07-15 00:44:00,
2013-07-14 20:49:00,73.2,71.7,30.09,ENE,66,0.0,0.1,95,0.01,BKN,,0.12,WeatherDisplay:10.37,2013-07-15 00:49:00,
2013-07-14 20:54:00,73.1,71.6,30.09,ENE,66,1.2,1.2,95,0.01,BKN,,0.12,WeatherDisplay:10.37,2013-07-15 00:54:00,
2013-07-14 20:59:00,73.1,71.9,30.10,ENE,66,0.0,0.0,96,0.01,BKN,,0.12,WeatherDisplay:10.37,2013-07-15 00:59:00,
2013-07-14 21:04:00,73.1,71.9,30.10,ENE,66,0.0,0.0,96,0.01,BKN,,0.12,WeatherDisplay:10.37,2013-07-15 01:04:00,
2013-07-14 21:09:00,73.1,71.9,30.10,ENE,67,0.0,0.0,96,0.01,BKN,,0.12,WeatherDisplay:10.37,2013-07-15 01:09:00,
2013-07-14 21:14:00,73.1,71.9,30.11,ENE,67,0.0,0.0,96,0.01,BKN,,0.12,WeatherDisplay:10.37,2013-07-15 01:14:00,
2013-07-14 21:19:00,73.1,71.9,30.10,ENE,67,0.0,0.0,96,0.01,BKN,,0.12,WeatherDisplay:10.37,2013-07-15 01:19:00,
2013-07-14 21:24:00,73.1,71.9,30.11,ENE,67,0.0,0.0,96,0.01,BKN,,0.12,WeatherDisplay:10.37,2013-07-15 01:24:00,
2013-07-14 21:29:00,73.1,71.9,30.11,ENE,67,0.0,0.0,96,0.01,BKN,,0.12,WeatherDisplay:10.37,2013-07-15 01:29:00,
2013-07-14 21:34:00,73.1,71.9,30.11,ENE,67,0.0,0.0,96,0.00,BKN,,0.12,WeatherDisplay:10.37,2013-07-15 01:34:00,
2013-07-14 21:39:00,73.1,71.9,30.11,ENE,67,0.0,0.0,96,0.00,BKN,,0.12,WeatherDisplay:10.37,2013-07-15 01:39:00,
2013-07-14 21:44:00,73.1,71.9,30.12,ENE,77,2.3,2.3,96,0.00,BKN,,0.12,WeatherDisplay:10.37,2013-07-15 01:44:00,
2013-07-14 21:49:00,73.1,71.9,30.12,ENE,78,2.3,2.3,96,0.03,RA,,0.16,WeatherDisplay:10.37,2013-07-15 01:49:00,
2013-07-14 21:54:00,73.1,71.9,30.12,NE,56,3.5,3.5,96,0.05,RA,,0.17,WeatherDisplay:10.37,2013-07-15 01:54:00,
2013-07-14 21:59:00,73.0,71.8,30.12,ENE,60,0.0,0.0,96,0.05,RA,,0.17,WeatherDisplay:10.37,2013-07-15 01:59:00,
2013-07-14 22:04:00,73.0,71.8,30.12,North,355,1.2,0.0,96,0.05,RA,,0.17,WeatherDisplay:10.37,2013-07-15 02:04:00,
2013-07-14 22:09:00,73.0,71.8,30.13,ENE,65,2.3,2.3,96,0.05,BKN,,0.17,WeatherDisplay:10.37,2013-07-15 02:09:00,
2013-07-14 22:14:00,73.0,71.8,30.13,ENE,70,1.2,1.2,96,0.05,OVC,,0.17,WeatherDisplay:10.37,2013-07-15 02:14:00,
2013-07-14 22:19:00,73.0,71.8,30.13,ENE,78,1.2,1.2,96,0.05,OVC,,0.17,WeatherDisplay:10.37,2013-07-15 02:19:00,
2013-07-14 22:24:00,72.9,71.7,30.14,ENE,74,1.2,0.0,96,0.05,OVC,,0.17,WeatherDisplay:10.37,2013-07-15 02:24:00,
2013-07-14 22:29:00,72.9,71.7,30.14,ENE,74,1.2,1.2,96,0.05,OVC,,0.17,WeatherDisplay:10.37,2013-07-15 02:29:00,
2013-07-14 22:34:00,72.8,71.6,30.13,ENE,74,1.2,0.0,96,0.05,OVC,,0.17,WeatherDisplay:10.37,2013-07-15 02:34:00,
2013-07-14 22:39:00,72.8,71.6,30.13,ENE,74,0.0,0.0,96,0.06,RA,,0.18,WeatherDisplay:10.37,2013-07-15 02:39:00,
2013-07-14 22:44:00,72.7,71.5,30.13,ENE,72,1.2,1.2,96,0.06,RA,,0.18,WeatherDisplay:10.37,2013-07-15 02:44:00,
2013-07-14 22:49:00,72.7,71.5,30.14,East,84,1.2,1.2,96,0.03,RA,,0.18,WeatherDisplay:10.37,2013-07-15 02:49:00,
2013-07-14 22:54:00,72.7,71.5,30.14,ENE,75,3.5,3.5,96,0.01,OVC,,0.18,WeatherDisplay:10.37,2013-07-15 02:54:00,
2013-07-14 22:59:00,72.5,71.3,30.14,ENE,61,3.5,3.5,96,0.01,OVC,,0.18,WeatherDisplay:10.37,2013-07-15 02:59:00,
2013-07-14 23:04:00,72.4,71.2,30.14,SE,136,1.2,1.2,96,0.01,OVC,,0.18,WeatherDisplay:10.37,2013-07-15 03:04:00,
2013-07-14 23:09:00,72.4,71.5,30.14,SE,126,1.2,0.0,97,0.01,OVC,,0.18,WeatherDisplay:10.37,2013-07-15 03:09:00,
2013-07-14 23:14:00,72.4,71.2,30.14,East,88,1.2,1.2,96,0.01,OVC,,0.18,WeatherDisplay:10.37,2013-07-15 03:14:00,
2013-07-14 23:19:00,72.4,71.2,30.14,East,88,1.2,1.2,96,0.01,OVC,,0.18,WeatherDisplay:10.37,2013-07-15 03:19:00,
2013-07-14 23:24:00,72.4,71.2,30.15,ENE,76,2.3,2.3,96,0.01,OVC,,0.18,WeatherDisplay:10.37,2013-07-15 03:24:00,
2013-07-14 23:29:00,72.4,71.2,30.15,ENE,75,1.2,0.0,96,0.01,OVC,,0.18,WeatherDisplay:10.37,2013-07-15 03:29:00,
2013-07-14 23:34:00,72.3,71.1,30.15,East,81,0.0,0.1,96,0.01,OVC,,0.18,WeatherDisplay:10.37,2013-07-15 03:34:00,
2013-07-14 23:39:00,72.3,71.1,30.15,East,81,1.2,1.2,96,0.00,OVC,,0.18,WeatherDisplay:10.37,2013-07-15 03:39:00,
2013-07-14 23:44:00,72.2,71.0,30.15,East,92,1.2,1.2,96,0.00,OVC,,0.18,WeatherDisplay:10.37,2013-07-15 03:44:00,
2013-07-14 23:49:00,72.2,71.3,30.15,ENE,71,1.2,1.2,97,0.00,OVC,,0.18,WeatherDisplay:10.37,2013-07-15 03:49:00,
2013-07-14 23:54:00,72.2,71.3,30.15,ENE,74,1.2,1.2,97,0.00,OVC,,0.18,WeatherDisplay:10.37,2013-07-15 03:54:00,
2013-07-14 23:59:00,72.1,71.2,30.16,ENE,64,2.3,2.3,97,0.00,OVC,,0.18,WeatherDisplay:10.37,2013-07-15 03:59:00,